Date,TemperatureHighF,TemperatureAvgF,TemperatureLowF,DewpointHighF,DewpointAvgF,DewpointLowF,HumidityHigh,HumidityAvg,HumidityLow,PressureMaxIn,PressureMinIn,WindSpeedMaxMPH,WindSpeedAvgMPH,GustSpeedMaxMPH,PrecipitationSumIn
2013-1-1,29,27,25,26,24,22,90,87,83,30.29,30.09,16,7,0,0.00
2013-1-2,41,28,16,31,23,13,89,82,68,30.29,30.16,17,4,0,0.00
2013-1-3,38,28,20,26,22,16,87,77,58,30.46,30.28,15,5,0,0.00
2013-1-4,51,33,16,30,23,13,92,70,37,30.41,30.19,13,2,0,0.00
2013-1-5,49,38,31,33,29,23,87,70,48,30.27,30.07,19,6,0,0.00
2013-1-6,52,36,24,28,25,21,86,65,36,30.39,30.21,11,4,0,0.00
2013-1-7,54,40,26,29,25,21,80,60,37,30.21,29.99,21,9,0,0.00
2013-1-8,59,40,24,36,30,21,91,70,38,30.14,29.88,17,5,0,0.00
2013-1-9,53,41,28,41,31,25,86,70,49,30.33,30.12,15,7,0,0.06
2013-1-10,48,45,41,47,43,39,100,95,87,30.11,29.68,18,3,0,0.25
2013-1-11,64,51,42,48,42,28,96,73,42,29.78,29.46,30,11,0,0.01
2013-1-12,41,31,24,34,20,13,82,64,51,30.10,29.78,20,12,0,0.00
2013-1-13,30,23,16,13,10,8,77,60,41,30.36,30.06,19,7,0,0.00
2013-1-14,34,24,16,17,13,9,83,64,37,30.46,30.30,10,2,0,0.00
2013-1-15,35,25,17,16,14,13,84,65,41,30.33,30.20,5,0,0,0.00
2013-1-16,52,34,17,33,24,14,87,67,47,30.21,30.05,12,2,0,0.00
2013-1-17,56,40,29,34,29,25,86,67,40,30.47,30.22,10,4,0,0.00
2013-1-18,62,46,30,35,32,25,86,62,36,30.37,30.00,28,9,0,0.00
2013-1-19,65,47,30,33,30,25,87,55,26,30.17,29.95,13,3,0,0.00
2013-1-20,56,39,27,33,26,15,83,61,41,30.32,30.06,19,4,0,0.00
2013-1-21,39,28,18,16,14,12,78,59,37,30.42,30.21,7,1,0,0.00
2013-1-22,54,33,20,29,21,14,83,63,38,30.25,30.08,13,2,0,0.00
2013-1-23,58,38,23,36,27,18,84,65,44,30.21,30.05,15,2,0,0.00
2013-1-24,38,32,28,25,22,19,69,64,60,30.26,30.22,15,8,0,0.00
2013-1-27,62,56,56,55,43,-100,85,73,76,29.67,29.64,13,-62,0,0.00
2013-1-28,75,61,46,59,52,42,90,74,43,29.72,29.53,29,13,0,0.00
2013-1-29,62,47,36,57,41,31,90,81,65,29.61,29.43,24,10,0,0.06
2013-1-30,42,35,26,31,24,16,84,65,37,29.97,29.62,30,13,0,0.00
2013-1-31,47,31,18,28,19,10,80,63,46,30.41,29.94,22,6,0,0.00
2013-2-1,42,27,14,20,13,8,79,58,35,30.41,30.11,14,2,0,0.00
2013-2-2,61,42,24,37,26,16,85,57,28,30.28,30.14,18,7,0,0.00
2013-2-3,60,46,28,34,28,21,76,52,32,30.24,29.77,21,8,0,0.00
2013-2-4,61,49,37,34,30,27,73,50,30,29.89,29.70,16,5,0,0.00
2013-2-5,68,46,26,33,28,21,84,54,24,29.97,29.84,9,1,0,0.00
2013-2-6,63,49,32,55,42,23,93,78,58,29.95,29.70,24,8,0,0.00
2013-2-7,58,51,36,54,42,27,93,73,42,30.12,29.68,25,9,0,0.02
2013-2-8,50,38,28,35,30,24,84,73,54,30.26,30.06,16,4,0,0.00
2013-2-9,47,40,30,46,36,28,95,87,78,30.07,29.54,29,11,0,0.01
2013-2-10,55,46,33,47,30,22,94,58,34,30.01,29.47,32,13,0,0.00
2013-2-11,49,36,24,24,21,17,81,56,31,30.19,30.01,11,3,0,0.00
2013-2-12,37,33,28,32,28,17,95,81,60,30.10,29.99,11,2,0,0.25
2013-2-13,50,35,22,37,28,19,94,78,56,30.01,29.89,10,2,0,0.02
2013-2-14,52,42,33,38,33,28,89,74,54,30.24,29.91,16,7,0,0.01
2013-2-15,43,34,26,31,24,21,93,68,46,30.40,30.24,18,6,0,0.00
2013-2-16,56,36,18,38,27,14,91,71,47,30.37,29.95,21,5,0,0.03
2013-2-17,70,50,33,38,32,28,82,55,25,29.95,29.49,28,6,0,0.00
2013-2-18,57,48,33,38,29,20,65,48,33,30.08,29.40,33,15,0,0.00
2013-2-19,49,37,23,26,23,18,82,59,39,30.29,30.08,14,4,0,0.00
2013-2-20,39,34,31,33,30,25,96,89,60,30.14,29.89,22,13,0,0.14
2013-2-21,33,26,13,32,25,11,96,95,90,29.96,29.65,18,7,0,0.02
2013-2-22,25,16,8,23,14,5,92,90,88,30.17,29.97,13,5,0,0.04
2013-2-23,35,23,5,33,21,2,95,92,86,30.12,29.85,7,1,0,0.20
2013-2-24,42,32,22,36,29,21,94,89,78,29.86,29.66,20,7,0,0.05
2013-2-25,35,33,32,33,32,31,96,95,90,29.79,29.62,33,14,0,1.18
2013-2-26,36,30,22,32,28,19,97,90,77,29.94,29.70,16,3,0,0.07
2013-2-27,38,25,19,30,21,16,90,84,72,30.14,29.93,25,12,0,0.01
2013-2-28,37,32,27,31,25,-100,88,80,74,30.26,30.19,12,-16,0,0.00
2013-3-1,35,28,21,30,25,18,92,86,79,30.35,30.20,13,5,0,0.00
2013-3-2,39,28,17,33,25,15,93,86,77,30.37,30.09,7,2,0,0.00
2013-3-3,53,39,25,43,34,22,94,83,64,30.09,29.48,10,1,0,0.00
2013-3-4,44,38,32,38,34,29,91,85,77,30.08,29.45,28,10,0,0.00
2013-3-5,44,38,29,33,27,22,84,66,53,30.36,30.06,28,11,0,0.00
2013-3-6,47,36,26,32,28,23,91,72,52,30.40,30.09,19,6,0,0.00
2013-3-7,68,47,31,42,33,27,86,63,33,30.09,29.87,25,8,0,0.00
2013-3-8,62,52,40,56,47,35,94,82,73,29.95,29.75,26,12,0,0.01
2013-3-9,63,57,43,60,53,38,95,87,58,29.77,29.43,29,10,0,1.22
2013-3-10,43,38,34,39,31,27,87,78,71,30.03,29.60,32,18,0,0.00
2013-3-11,54,39,27,39,28,21,82,67,40,30.03,29.90,15,5,0,0.00
2013-3-12,56,46,38,42,36,29,89,69,43,30.28,29.98,15,4,0,0.00
2013-3-13,62,45,32,44,34,27,88,68,43,30.39,30.16,19,4,0,0.00
2013-3-14,79,57,40,57,43,34,85,62,28,30.18,29.96,17,3,0,0.00
2013-3-15,85,62,45,54,47,41,85,61,25,29.98,29.59,12,2,0,0.00
2013-3-16,59,51,41,47,42,33,89,70,56,29.88,29.56,32,12,0,0.00
2013-3-17,44,40,38,38,34,31,91,79,74,29.89,29.60,24,8,0,0.00
2013-3-18,58,46,37,39,33,24,94,65,28,29.95,29.64,17,5,0,0.02
2013-3-19,55,43,32,41,31,26,83,64,46,30.21,29.92,13,2,0,0.00
2013-3-20,51,41,29,32,28,22,91,64,42,30.36,29.92,13,5,0,0.00
2013-3-21,54,43,37,38,31,25,82,64,51,29.91,29.53,23,12,0,0.00
2013-3-22,49,39,35,37,33,32,88,80,61,29.89,29.71,19,6,0,0.00
2013-3-23,37,36,32,35,34,31,95,92,86,29.93,29.73,18,8,0,0.01
2013-3-24,32,31,28,31,29,23,95,93,71,30.18,29.92,33,19,0,0.01
2013-3-25,30,28,26,24,21,19,78,75,72,30.29,30.20,18,13,0,0.00
2013-3-26,54,44,33,30,24,-100,65,48,34,30.41,30.11,19,-13,0,0.00
2013-3-27,67,50,37,44,33,28,73,54,30,30.10,29.93,23,6,0,0.00
2013-3-28,68,52,37,55,44,33,88,74,55,30.05,29.93,14,1,0,0.00
2013-3-29,72,59,45,60,53,43,96,83,65,30.02,29.88,18,4,0,0.06
2013-3-30,78,62,50,61,54,49,97,78,36,29.87,29.73,13,2,0,0.00
2013-3-31,68,58,47,53,46,36,94,69,32,29.98,29.81,25,5,0,0.23
2013-4-1,49,43,40,42,37,29,88,78,64,30.16,29.86,22,9,0,0.01
2013-4-2,41,37,34,34,32,28,92,81,62,30.21,30.14,13,8,0,0.24
2013-4-3,39,37,34,35,34,32,95,89,77,30.24,30.15,15,6,0,0.38
2013-4-4,51,42,36,42,38,35,95,86,68,30.20,30.08,9,2,0,0.00
2013-4-5,66,50,33,52,43,31,95,78,56,30.11,29.71,22,8,0,0.00
2013-4-6,76,64,50,55,49,44,86,61,34,29.74,29.62,24,4,0,0.00
2013-4-7,70,58,47,64,55,45,94,88,68,29.74,29.51,20,4,0,0.00
2013-4-8,77,66,60,68,62,58,94,85,71,29.55,29.36,21,11,0,0.00
2013-4-9,72,51,34,65,43,-100,93,81,73,29.87,29.45,28,17,0,0.40
2013-4-10,33,32,30,31,29,27,92,90,87,29.97,29.84,21,9,0,0.13
2013-4-14,75,68,60,58,50,35,71,54,39,29.59,29.31,21,7,0,0.00
2013-4-15,59,55,51,43,38,33,65,52,39,29.74,29.59,16,8,0,0.00
2013-4-23,36,35,34,33,32,32,92,91,88,30.12,30.08,26,18,0,0.00
2013-5-1,42,41,40,38,29,-100,90,83,86,30.18,30.08,25,18,0,0.10
2013-5-2,53,43,36,37,34,30,92,75,45,30.45,30.18,29,16,0,0.21
2013-5-3,62,47,32,39,33,29,89,64,31,30.36,29.95,25,8,0,0.00
2013-5-4,58,48,36,42,36,29,83,65,40,30.04,29.90,28,12,0,0.00
2013-5-5,65,54,45,54,46,40,91,76,60,30.11,29.98,18,6,0,0.00
2013-5-6,69,56,42,56,50,41,96,81,57,30.06,29.92,5,1,0,0.00
2013-5-7,75,62,54,61,56,51,93,80,58,29.99,29.75,18,5,0,0.04
2013-5-8,81,67,57,68,58,51,90,73,43,29.82,29.59,31,10,0,0.05
2013-5-9,72,64,57,64,58,55,94,82,64,29.89,29.69,22,2,0,0.58
2013-5-10,71,61,53,58,54,51,93,79,53,30.01,29.90,17,5,0,0.00
2013-5-11,70,60,50,57,50,43,91,70,44,30.17,30.01,20,6,0,0.00
2013-5-12,75,59,45,54,47,40,89,66,39,30.17,29.91,15,3,0,0.00
2013-5-13,84,65,47,72,56,44,91,73,52,29.97,29.81,12,2,0,0.00
2013-5-14,89,76,63,62,54,45,81,48,29,29.84,29.68,19,5,0,0.00
2013-5-15,76,67,56,67,60,52,94,79,67,29.73,29.65,14,4,0,0.00
2013-5-16,74,66,57,66,62,56,97,87,70,29.75,29.64,9,1,0,0.00
2013-5-17,74,66,54,70,64,53,97,91,86,29.77,29.69,13,2,0,0.01
2013-5-18,90,75,70,75,68,55,96,81,39,29.71,29.42,24,6,0,0.00
2013-5-19,87,72,64,72,65,57,90,77,52,29.56,29.34,23,6,0,0.33
2013-5-20,83,70,58,65,58,54,89,67,42,29.68,29.48,16,4,0,0.00
2013-5-21,74,64,53,58,51,48,82,65,41,29.80,29.63,23,4,0,0.00
2013-5-22,79,64,48,61,52,46,90,68,42,29.84,29.70,12,2,0,0.00
2013-5-23,66,61,56,60,56,53,93,83,72,30.03,29.80,14,4,0,0.00
2013-5-24,81,68,56,72,64,54,94,86,73,30.07,29.89,14,4,0,0.00
2013-5-25,84,73,59,69,65,57,95,77,57,29.97,29.80,25,9,0,0.00
2013-5-26,87,76,67,72,68,65,94,79,57,29.85,29.67,26,11,0,0.00
2013-5-27,92,80,72,73,70,68,88,73,51,29.66,29.39,32,15,0,0.00
2013-5-28,89,78,71,73,69,66,86,73,56,29.58,29.45,30,12,0,0.00
2013-5-29,82,73,61,70,66,57,90,80,63,29.57,29.30,32,14,0,0.07
2013-5-30,89,73,60,69,62,56,92,73,33,29.57,29.36,29,8,0,0.00
2013-5-31,85,74,62,70,66,58,96,78,47,29.62,29.42,18,4,0,0.00
2013-6-1,77,69,59,63,54,48,90,60,41,29.95,29.59,22,8,0,0.00
2013-6-2,77,63,49,53,49,46,91,64,34,30.06,29.86,13,2,0,0.00
2013-6-3,87,69,53,64,58,50,94,70,43,29.89,29.62,25,7,0,0.28
2013-6-4,86,74,65,71,66,62,91,78,59,29.77,29.55,28,6,0,0.13
2013-6-5,78,69,63,70,64,60,94,83,65,29.90,29.69,20,5,0,0.78
2013-6-6,80,68,58,60,55,52,92,67,39,29.91,29.82,14,4,0,0.00
2013-6-7,83,69,56,62,57,53,93,68,41,29.91,29.75,10,1,0,0.00
2013-6-8,86,72,59,65,60,57,94,70,40,29.76,29.55,29,9,0,0.17
2013-6-9,89,75,61,64,60,55,96,66,32,29.80,29.68,9,1,0,0.00
2013-6-10,100,81,63,68,64,60,92,62,32,29.74,29.60,14,3,0,0.00
2013-6-11,99,86,68,69,62,56,70,47,32,29.74,29.59,31,11,0,0.00
2013-6-12,101,86,71,70,68,64,85,57,31,29.75,29.63,19,5,0,0.00
2013-6-13,99,83,68,73,66,58,86,59,38,29.90,29.70,14,4,0,0.00
2013-6-14,98,85,70,72,67,61,94,60,32,29.80,29.67,23,6,0,0.00
2013-6-15,92,85,75,70,64,60,75,53,35,29.83,29.69,31,9,0,0.00
2013-6-16,94,81,68,71,66,62,89,62,37,29.85,29.68,19,3,0,0.14
2013-6-17,89,74,66,68,66,63,95,77,43,29.90,29.69,24,4,0,0.34
2013-6-18,92,77,64,70,64,60,96,68,35,29.92,29.76,12,2,0,0.00
2013-6-19,87,78,69,69,67,65,89,71,49,29.84,29.72,20,5,0,0.00
2013-6-20,98,84,70,71,70,67,94,66,39,29.77,29.65,27,12,0,0.00
2013-6-21,97,86,75,72,69,67,76,59,37,29.76,29.66,27,14,0,0.00
2013-6-22,97,84,76,69,66,61,70,55,31,29.75,29.61,27,14,0,0.00
2013-6-23,97,85,72,71,66,61,80,56,32,29.68,29.60,29,13,0,0.05
2013-6-24,97,85,76,69,67,65,69,56,35,29.74,29.58,31,14,0,0.00
2013-6-25,99,87,75,73,69,65,73,57,39,29.68,29.51,33,15,0,0.00
2013-6-26,104,88,71,74,70,66,84,57,34,29.73,29.57,16,5,0,0.00
2013-6-27,108,87,72,74,70,62,89,62,30,29.89,29.59,42,5,0,0.30
2013-6-28,100,84,71,72,66,60,94,60,27,29.91,29.73,16,3,0,0.00
2013-6-29,95,80,69,66,62,54,90,57,31,29.88,29.70,17,6,0,0.03
2013-6-30,86,75,60,58,55,52,82,52,33,29.93,29.80,22,7,0,0.00
2013-7-1,85,72,57,57,50,44,85,52,25,30.02,29.94,16,5,0,0.00
2013-7-2,87,73,59,54,50,47,73,47,25,30.04,29.90,12,4,0,0.00
2013-7-3,89,74,57,61,54,50,77,52,29,29.97,29.80,17,4,0,0.01
2013-7-4,93,78,60,60,54,48,80,48,23,29.87,29.72,21,5,0,0.00
2013-7-5,96,84,71,63,61,60,69,48,31,29.79,29.63,27,12,0,0.00
2013-7-6,96,82,75,66,62,58,67,51,29,29.73,29.64,24,10,0,0.00
2013-7-7,101,88,76,66,64,61,63,46,27,29.80,29.69,22,11,0,0.00
2013-7-8,102,87,75,69,66,64,69,51,29,29.86,29.74,19,10,0,0.00
2013-7-9,106,92,78,70,67,63,72,46,27,29.81,29.67,19,8,0,0.00
2013-7-10,103,88,76,71,68,65,80,53,31,29.84,29.71,21,4,0,0.13
2013-7-11,96,86,76,70,67,63,79,56,33,29.83,29.72,17,4,0,0.00
2013-7-12,103,88,71,71,68,65,87,55,31,29.79,29.69,23,7,0,0.00
2013-7-13,105,90,73,71,68,64,83,52,27,29.80,29.65,18,7,0,0.00
2013-7-14,85,73,68,69,67,65,94,84,57,29.94,29.71,21,4,0,0.52
2013-7-15,76,69,63,69,65,61,95,86,66,30.03,29.92,21,4,0,0.14
2013-7-16,90,75,68,70,68,65,95,80,50,30.14,30.03,18,4,0,0.19
2013-7-17,89,77,68,74,70,67,97,82,54,30.17,30.05,11,2,0,0.03
2013-7-18,93,80,67,73,68,66,96,70,44,30.07,29.85,23,5,0,0.00
2013-7-19,95,83,70,70,67,66,90,63,40,29.89,29.71,19,3,0,0.00
2013-7-20,98,83,72,70,68,63,86,63,32,29.77,29.64,22,3,0,0.00
2013-7-21,100,83,70,75,70,65,95,69,36,29.72,29.57,14,5,0,0.15
2013-7-22,102,89,77,72,68,65,70,52,31,29.68,29.59,17,5,0,0.00
2013-7-23,103,89,72,74,69,59,88,55,33,29.70,29.54,26,4,0,0.01
2013-7-24,92,80,68,72,68,64,91,68,47,29.89,29.69,19,4,0,0.02
2013-7-25,89,78,70,73,70,67,93,76,51,29.91,29.80,20,5,0,0.00
2013-7-26,85,76,69,72,68,64,96,79,55,29.94,29.79,19,7,0,0.77
2013-7-27,87,74,64,67,64,60,91,71,49,29.96,29.78,16,6,0,0.00
2013-7-28,90,76,67,69,64,60,85,69,47,29.87,29.73,22,12,0,0.00
2013-7-29,92,76,69,75,70,65,96,82,57,29.81,29.64,25,7,0,2.14
2013-7-30,83,76,69,75,72,68,97,88,72,29.93,29.80,12,2,0,0.00
2013-7-31,88,78,70,73,70,68,96,80,54,30.01,29.88,7,1,0,0.01
2013-8-1,92,80,68,72,70,66,95,73,45,29.98,29.77,15,3,0,0.00
2013-8-2,102,87,76,78,73,69,89,66,35,29.77,29.57,17,6,0,0.01
2013-8-3,97,85,77,77,72,69,92,66,44,29.86,29.66,20,9,0,0.04
2013-8-4,86,79,75,78,75,73,95,89,73,29.89,29.77,14,6,0,0.05
2013-8-5,102,85,72,75,72,67,97,69,33,29.80,29.57,26,2,0,0.00
2013-8-6,102,86,72,76,70,67,89,63,37,29.75,29.55,21,4,0,0.09
2013-8-7,90,82,73,75,71,59,88,70,45,29.75,29.60,19,4,0,0.14
2013-8-8,86,76,68,75,71,66,96,84,64,29.82,29.67,19,3,0,2.54
2013-8-9,76,72,68,72,68,65,96,89,78,30.00,29.75,15,4,0,1.21
2013-8-10,84,74,63,69,65,62,96,77,53,30.07,29.92,10,1,0,0.00
2013-8-11,88,76,66,73,69,64,96,80,59,30.00,29.85,7,1,0,0.00
2013-8-12,91,79,72,76,72,68,93,78,57,29.89,29.77,13,4,0,0.01
2013-8-13,85,73,67,72,69,65,96,86,63,29.99,29.83,25,3,0,1.10
2013-8-14,82,72,64,67,64,59,96,77,47,30.03,29.90,11,2,0,0.01
2013-8-15,85,74,65,73,67,63,93,81,62,29.96,29.79,15,4,0,0.05
2013-8-16,81,70,63,67,64,61,96,83,62,29.99,29.88,12,2,0,0.00
2013-8-17,83,73,66,68,65,63,95,78,55,30.03,29.90,21,4,0,0.05
2013-8-18,86,74,64,67,64,61,90,73,49,30.01,29.87,15,5,0,0.00
2013-8-19,90,77,65,69,66,63,93,72,48,29.93,29.81,19,6,0,0.00
2013-8-20,95,80,66,69,66,63,94,67,38,29.89,29.79,22,6,0,0.00
2013-8-21,96,80,66,67,64,62,91,62,34,29.90,29.82,24,6,0,0.00
2013-8-22,95,81,65,70,66,62,91,63,35,29.92,29.80,17,6,0,0.00
2013-8-23,98,83,68,73,69,64,94,66,34,29.87,29.75,18,6,0,0.00
2013-8-24,98,84,70,72,70,67,93,66,38,29.92,29.82,19,8,0,0.00
2013-8-25,97,84,70,73,69,65,93,65,35,30.00,29.91,16,6,0,0.00
2013-8-26,95,83,72,70,68,65,88,63,42,30.00,29.88,23,8,0,0.00
2013-8-27,94,82,70,68,66,64,85,62,39,29.92,29.83,19,8,0,0.00
2013-8-28,95,81,68,73,69,65,93,68,43,29.88,29.80,15,4,0,0.00
2013-8-29,98,85,72,69,65,63,79,55,31,29.87,29.77,13,4,0,0.00
2013-8-30,104,86,69,70,65,61,83,53,25,29.81,29.66,13,2,0,0.00
2013-8-31,104,88,70,67,64,62,78,49,27,29.73,29.57,14,3,0,0.00
2013-9-1,92,82,74,72,67,62,85,60,43,29.82,29.61,14,3,0,0.06
2013-9-2,90,77,61,65,59,56,89,58,33,29.95,29.82,14,3,0,0.00
2013-9-3,92,76,59,63,58,54,85,58,34,29.97,29.83,15,2,0,0.00
2013-9-4,95,77,59,62,58,54,85,56,25,29.99,29.88,12,2,0,0.00
2013-9-5,98,80,64,69,64,59,88,60,30,29.99,29.87,15,3,0,0.00
2013-9-6,100,84,67,69,65,63,89,57,32,29.94,29.78,16,4,0,0.00
2013-9-7,102,86,70,68,65,63,80,51,28,29.83,29.71,13,4,0,0.00
2013-9-8,99,85,69,67,64,60,81,52,31,29.78,29.66,17,5,0,0.00
2013-9-9,96,82,68,67,61,56,77,50,30,29.78,29.70,29,10,0,0.00
2013-9-10,95,82,68,68,63,58,79,54,34,29.91,29.77,23,8,0,0.00
2013-9-11,94,81,68,67,63,61,79,57,36,29.97,29.84,20,4,0,0.00
2013-9-12,90,79,71,69,67,62,87,67,47,29.98,29.89,21,7,0,0.00
2013-9-13,78,72,65,68,58,52,84,63,43,30.00,29.86,12,5,0,0.02
2013-9-14,82,72,60,65,59,52,82,65,56,29.90,29.76,14,5,0,0.00
2013-9-15,98,80,68,67,64,61,81,60,30,29.91,29.76,18,7,0,0.00
2013-9-16,81,72,67,70,67,65,95,84,63,30.03,29.90,14,2,0,0.13
2013-9-17,88,75,67,73,68,65,95,81,55,30.00,29.76,19,6,0,0.00
2013-9-18,93,81,70,69,66,60,91,64,37,29.80,29.64,33,10,0,0.00
2013-9-19,91,76,67,71,65,62,94,71,46,29.85,29.63,30,7,0,0.30
2013-9-20,73,66,60,66,57,52,95,73,50,29.97,29.83,18,6,0,0.02
2013-9-21,82,66,53,59,54,50,92,67,35,29.93,29.77,10,2,0,0.00
2013-9-22,83,67,53,56,53,49,91,63,36,29.82,29.65,17,6,0,0.00
2013-9-23,85,69,54,55,52,48,85,58,33,29.72,29.57,26,8,0,0.00
2013-9-24,86,72,58,53,49,43,72,48,23,29.84,29.73,25,8,0,0.00
2013-9-25,90,70,52,59,53,47,88,59,29,29.80,29.57,18,5,0,0.00
2013-9-26,96,79,64,62,58,52,73,50,30,29.63,29.53,29,13,0,0.00
2013-9-27,88,78,61,68,62,53,78,57,45,29.72,29.57,25,12,0,0.00
2013-9-28,80,66,57,70,56,49,93,72,44,30.01,29.59,29,10,0,1.03
2013-9-29,76,62,48,53,50,46,90,67,36,30.02,29.81,6,1,0,0.00
2013-9-30,82,65,51,60,54,48,92,71,45,29.81,29.65,16,4,0,0.00
2013-10-1,86,70,55,68,61,52,91,75,52,29.78,29.69,15,4,0,0.00
2013-10-2,84,72,60,72,67,59,96,83,64,29.79,29.65,20,7,0,0.00
2013-10-3,89,78,70,70,68,66,92,73,52,29.67,29.50,27,14,0,0.00
2013-10-4,90,76,58,69,63,40,91,65,45,29.87,29.51,27,16,0,0.63
2013-10-5,57,51,49,44,38,36,64,60,52,30.05,29.88,22,10,0,0.00
2013-10-9,64,60,58,54,53,53,82,77,69,29.86,29.83,3,0,0,0.00
2013-10-10,82,67,54,63,57,51,93,72,51,29.85,29.63,23,8,0,0.00
2013-10-11,69,66,64,61,59,56,85,76,66,29.66,29.59,21,11,0,0.00
2013-10-16,51,47,42,46,42,38,94,82,61,30.11,29.99,9,2,0,0.08
2013-10-17,70,53,40,50,41,35,94,69,31,29.99,29.86,10,1,0,0.00
2013-10-18,49,42,34,41,38,31,92,84,73,30.14,29.95,18,6,0,0.17
2013-10-19,70,50,32,44,38,30,93,67,32,30.12,29.87,14,2,0,0.01
2013-10-20,73,59,46,50,43,37,78,58,41,29.87,29.68,15,3,0,0.00
2013-10-21,64,54,48,44,40,36,75,61,41,30.07,29.83,15,4,0,0.00
2013-10-22,74,58,43,45,41,36,80,57,30,30.01,29.92,16,4,0,0.00
2013-10-23,71,54,40,51,43,36,91,69,45,30.07,29.91,12,2,0,0.00
2013-10-24,57,48,41,44,38,33,87,69,46,30.34,30.02,12,3,0,0.00
2013-10-25,51,39,35,35,32,30,86,77,48,30.38,30.34,14,1,0,0.00
2013-10-28,63,62,62,61,60,59,92,90,89,29.90,29.84,17,9,0,0.00
2013-10-29,69,64,59,66,60,56,93,87,77,29.84,29.76,19,4,0,0.06
2013-10-30,78,66,54,69,62,51,96,86,70,29.80,29.55,18,7,0,0.02
2013-10-31,65,55,49,51,47,40,96,76,47,29.69,29.48,25,8,0,0.49
2013-11-1,65,53,42,47,41,37,88,66,44,30.04,29.69,18,6,0,0.00
2013-11-2,62,51,38,39,36,33,83,60,35,30.25,30.05,10,2,0,0.00
2013-11-3,64,53,43,42,38,34,73,58,42,30.05,29.70,33,12,0,0.00
2013-11-4,62,56,45,54,45,40,88,70,53,29.93,29.68,22,4,0,0.00
2013-11-5,64,57,42,61,54,38,94,90,81,30.02,29.71,24,9,0,0.14
2013-11-6,55,43,35,38,36,32,91,76,48,30.29,30.02,19,4,0,0.00
2013-11-7,64,46,32,43,36,28,89,70,37,30.41,30.21,5,0,0,0.00
2013-11-8,68,54,39,38,35,32,83,53,29,30.21,29.80,34,11,0,0.00
2013-11-9,62,51,40,48,42,36,91,74,56,30.17,29.87,10,1,0,0.00
2013-11-10,63,55,48,53,50,44,92,85,68,30.27,30.13,12,1,0,0.00
2013-11-11,62,52,35,56,48,27,92,85,70,30.52,30.07,22,6,0,0.00
2013-11-12,39,31,25,25,17,15,70,57,38,30.82,30.54,23,7,0,0.00
2013-11-13,55,37,18,28,21,13,89,56,33,30.66,30.13,20,6,0,0.00
2013-11-14,57,44,31,40,30,19,79,60,38,30.13,29.84,17,4,0,0.00
2013-11-15,66,48,31,47,39,29,94,72,43,29.86,29.55,22,6,0,0.00
2013-11-16,82,66,54,54,48,42,78,56,27,29.55,29.27,28,12,0,0.00
2013-11-17,69,58,42,42,32,20,59,39,24,30.05,29.31,19,5,0,0.00
2013-11-18,60,46,30,33,27,20,78,50,26,30.21,30.05,6,0,0,0.00
2013-11-19,63,52,39,40,34,30,80,53,37,30.12,29.73,30,11,0,0.00
2013-11-20,69,58,53,55,46,32,80,64,44,29.79,29.64,26,9,0,0.00
2013-11-21,54,40,28,52,37,22,95,88,77,30.47,29.76,30,14,0,0.48
2013-11-22,32,28,26,23,20,18,83,73,57,30.64,30.48,25,15,0,0.00
2013-11-23,37,33,28,25,21,17,75,62,54,30.70,30.60,17,6,0,0.00
2013-11-24,29,27,25,22,18,14,80,69,57,30.68,30.25,12,4,0,0.00
2013-11-25,37,32,28,31,27,22,88,82,76,30.25,30.15,12,3,0,0.00
2013-11-26,45,33,22,29,24,18,89,73,47,30.42,30.19,21,7,0,0.00
2013-11-27,42,28,18,24,18,12,83,67,40,30.44,30.16,11,1,0,0.00
2013-11-28,51,37,26,37,30,21,88,76,56,30.36,30.13,9,1,0,0.00
2013-11-29,59,39,24,37,30,21,92,71,38,30.36,30.09,25,4,0,0.00
2013-11-30,62,44,33,43,35,29,92,73,42,30.11,30.00,6,1,0,0.00
2013-12-1,60,42,32,42,35,30,91,78,49,30.05,29.81,7,0,0,0.00
2013-12-2,59,41,29,41,34,27,93,78,51,29.80,29.53,4,0,0,0.00
2013-12-3,65,44,29,48,38,27,94,82,45,29.53,29.38,10,1,0,0.00
2013-12-4,43,33,26,41,26,10,95,76,49,30.08,29.37,26,11,0,0.00
2013-12-5,26,21,18,11,6,3,68,52,45,30.36,30.10,22,13,0,0.00
2013-12-6,24,18,9,10,4,0,71,55,36,30.64,30.32,22,10,0,0.00
2013-12-7,23,15,5,10,3,-1,79,62,44,30.67,30.25,9,2,0,0.00
2013-12-8,31,24,20,22,17,9,87,74,61,30.25,29.92,14,5,0,0.00
2013-12-9,20,17,11,15,10,4,85,74,52,30.40,30.20,14,4,0,0.00
2013-12-10,46,24,4,27,13,-1,85,67,32,30.39,30.11,17,4,0,0.01
2013-12-11,36,26,16,22,15,11,89,66,42,30.59,30.21,15,4,0,0.00
2013-12-12,49,29,14,26,18,8,88,66,37,30.58,30.07,18,4,0,0.00
2013-12-13,57,43,30,40,34,27,92,73,53,30.07,29.63,20,8,0,0.00
2013-12-14,46,34,25,30,24,19,87,70,47,30.22,29.84,27,9,0,0.00
2013-12-15,63,41,24,31,25,20,86,57,27,30.21,30.02,12,2,0,0.00
2013-12-16,71,47,31,32,25,21,66,46,23,30.08,29.97,10,1,0,0.00
2013-12-17,60,43,32,32,27,22,68,54,32,30.28,30.08,12,3,0,0.00
2013-12-18,70,49,30,42,33,24,81,57,29,30.17,29.64,29,8,0,0.00
2013-12-19,64,53,40,48,44,36,97,73,51,29.63,29.46,19,7,0,0.00
2013-12-20,38,27,21,33,18,14,83,70,62,29.97,29.61,27,10,0,0.00
2013-12-21,29,27,25,27,21,17,93,79,64,29.82,29.54,14,6,0,0.00
2013-12-22,31,23,16,24,19,14,98,85,74,30.35,29.82,13,4,0,0.02
2013-12-23,21,17,10,18,14,7,92,88,83,30.59,30.34,14,2,0,0.00
2013-12-24,33,28,19,31,26,16,94,92,89,30.55,30.11,19,6,0,0.00
2013-12-25,49,35,25,36,29,23,94,80,54,30.40,30.25,12,2,0,0.06
2013-12-26,43,29,24,34,25,21,90,84,69,30.36,30.26,11,2,0,0.00
2013-12-27,59,38,25,36,30,23,91,74,36,30.32,30.16,6,1,0,0.00
2013-12-28,60,41,28,37,31,23,91,71,33,30.16,29.78,17,3,0,0.00
2013-12-29,37,25,16,34,14,7,93,66,47,30.33,29.88,31,14,0,0.00
2013-12-30,44,26,10,25,15,4,80,63,42,30.32,30.20,11,1,0,0.00
2013-12-31,58,41,27,29,26,21,79,56,28,30.30,29.96,27,7,0,0.00
2014-1-1,39,28,17,32,22,13,92,80,65,30.37,29.84,27,10,0,0.00
2014-1-2,43,24,9,28,18,5,86,78,56,30.48,30.32,13,2,0,0.00